| time (UTC) | temp F | wind direction | speed MPH | gust MPH | rain 1hr in | rain 24hr in | rain mn in | humidity % | barometer mb |
| 20260903001731 | 86 | 199 | 1.0 | 2.0 | 0.00 | 0.00 | 0.00 | 75 | 1017.9 |
| 20260903001224 | 87 | 199 | 0.0 | 1.0 | 0.00 | 0.00 | 0.00 | 74 | 1017.9 |
| 20260903000718 | 87 | 199 | 0.0 | 1.0 | 0.00 | 0.00 | 0.00 | 73 | 1017.9 |
| 20260903000233 | 87 | 212 | 0.0 | 1.0 | 0.00 | 0.00 | 0.00 | 73 | 1017.9 |
| 20260902235719 | 88 | 212 | 1.0 | 1.0 | 0.00 | 0.00 | 0.00 | 72 | 1017.9 |
| 20260902235217 | 88 | 214 | 1.0 | 1.0 | 0.00 | 0.00 | 0.00 | 72 | 1017.9 |
| 20260902234731 | 89 | 214 | 1.0 | 1.0 | 0.00 | 0.00 | 0.00 | 71 | 1017.9 |
| 20260902234224 | 89 | 205 | 1.0 | 1.0 | 0.00 | 0.00 | 0.00 | 70 | 1017.9 |
| 20260902233718 | 89 | 224 | 0.0 | 2.0 | 0.00 | 0.00 | 0.00 | 70 | 1018.0 |
| 20260902233251 | 90 | 234 | 1.0 | 2.0 | 0.00 | 0.00 | 0.00 | 70 | 1018.0 |
| 20260902232723 | 90 | 220 | 1.0 | 2.0 | 0.00 | 0.00 | 0.00 | 69 | 1018.0 |
| 20260902232216 | 91 | 209 | 0.0 | 1.0 | 0.00 | 0.00 | 0.00 | 68 | 1018.0 |
| 20260902231731 | 92 | 227 | 0.0 | 1.0 | 0.00 | 0.00 | 0.00 | 67 | 1018.0 |
| 20260902231228 | 92 | 227 | 1.0 | 1.0 | 0.00 | 0.00 | 0.00 | 65 | 1018.0 |
| 20260902230722 | 93 | 234 | 1.0 | 2.0 | 0.00 | 0.00 | 0.00 | 65 | 1018.1 |
| 20260902230215 | 93 | 219 | 1.0 | 2.0 | 0.00 | 0.00 | 0.00 | 63 | 1018.1 |
| 20260902225722 | 93 | 235 | 1.0 | 2.0 | 0.00 | 0.00 | 0.00 | 63 | 1018.1 |
| 20260902225216 | 93 | 233 | 1.0 | 4.0 | 0.00 | 0.00 | 0.00 | 62 | 1018.1 |
| 20260902224749 | 93 | 236 | 2.0 | 4.0 | 0.00 | 0.00 | 0.00 | 62 | 1018.1 |
| 20260902223717 | 94 | 207 | 1.0 | 3.0 | 0.00 | 0.00 | 0.00 | 63 | 1018.1 |
| 20260902223215 | 94 | 237 | 2.0 | 3.0 | 0.00 | 0.00 | 0.00 | 61 | 1018.1 |
| 20260902222729 | 94 | 226 | 0.0 | 3.0 | 0.00 | 0.00 | 0.00 | 63 | 1018.1 |
| 20260902222243 | 94 | 229 | 0.0 | 3.0 | 0.00 | 0.00 | 0.00 | 62 | 1018.1 |
| 20260902221736 | 94 | 233 | 1.0 | 4.0 | 0.00 | 0.00 | 0.00 | 61 | 1018.1 |
| 20260902221229 | 94 | 221 | 2.0 | 5.0 | 0.00 | 0.00 | 0.00 | 61 | 1018.1 |
| 20260902220723 | 94 | 214 | 3.0 | 6.0 | 0.00 | 0.00 | 0.00 | 60 | 1018.2 |
| 20260902220237 | 94 | 250 | 2.0 | 6.0 | 0.00 | 0.00 | 0.00 | 60 | 1018.2 |
| 20260902215743 | 94 | 271 | 2.0 | 4.0 | 0.00 | 0.00 | 0.00 | 61 | 1018.2 |
| 20260902215216 | 94 | 225 | 2.0 | 7.0 | 0.00 | 0.00 | 0.00 | 62 | 1018.3 |
| 20260902214730 | 94 | 233 | 2.0 | 7.0 | 0.00 | 0.00 | 0.00 | 61 | 1018.2 |
| 20260902214242 | 94 | 198 | 2.0 | 6.0 | 0.00 | 0.00 | 0.00 | 60 | 1018.2 |
| 20260902213717 | 94 | 197 | 4.0 | 6.0 | 0.00 | 0.00 | 0.00 | 59 | 1018.3 |
| 20260902213231 | 95 | 228 | 1.0 | 4.0 | 0.00 | 0.00 | 0.00 | 59 | 1018.3 |
| 20260902212723 | 94 | 232 | 2.0 | 8.0 | 0.00 | 0.00 | 0.00 | 59 | 1018.3 |
| 20260902212216 | 94 | 235 | 3.0 | 8.0 | 0.00 | 0.00 | 0.00 | 59 | 1018.3 |
| 20260902211728 | 95 | 280 | 3.0 | 4.0 | 0.00 | 0.00 | 0.00 | 58 | 1018.3 |
| 20260902211220 | 94 | 243 | 1.0 | 6.0 | 0.00 | 0.00 | 0.00 | 59 | 1018.4 |
| 20260902210753 | 94 | 243 | 3.0 | 6.0 | 0.00 | 0.00 | 0.00 | 59 | 1018.4 |
| 20260902210245 | 94 | 201 | 2.0 | 6.0 | 0.00 | 0.00 | 0.00 | 59 | 1018.4 |
| 20260902205750 | 94 | 276 | 3.0 | 7.0 | 0.00 | 0.00 | 0.00 | 59 | 1018.5 |
| 20260902205222 | 95 | 248 | 2.0 | 7.0 | 0.00 | 0.00 | 0.00 | 57 | 1018.5 |
| 20260902204735 | 95 | 276 | 2.0 | 7.0 | 0.00 | 0.00 | 0.00 | 55 | 1018.5 |
| 20260902204247 | 95 | 245 | 3.0 | 7.0 | 0.00 | 0.00 | 0.00 | 57 | 1018.5 |
| 20260902203744 | 94 | 278 | 1.0 | 7.0 | 0.00 | 0.00 | 0.00 | 59 | 1018.6 |
| 20260902203216 | 94 | 205 | 3.0 | 7.0 | 0.00 | 0.00 | 0.00 | 60 | 1018.5 |
| 20260902202730 | 94 | 222 | 2.0 | 6.0 | 0.00 | 0.00 | 0.00 | 59 | 1018.6 |
| 20260902202223 | 94 | 262 | 3.0 | 6.0 | 0.00 | 0.00 | 0.00 | 58 | 1018.6 |
| 20260902201716 | 94 | 223 | 2.0 | 6.0 | 0.00 | 0.00 | 0.00 | 58 | 1018.6 |
| 20260902201230 | 93 | 232 | 3.0 | 5.0 | 0.00 | 0.00 | 0.00 | 61 | 1018.7 |
| 20260902200723 | 93 | 240 | 1.0 | 6.0 | 0.00 | 0.00 | 0.00 | 60 | 1018.7 |
| 20260902200217 | 94 | 226 | 4.0 | 6.0 | 0.00 | 0.00 | 0.00 | 59 | 1018.8 |
| 20260902195728 | 95 | 265 | 0.0 | 7.0 | 0.00 | 0.00 | 0.00 | 60 | 1018.8 |
| 20260902195242 | 95 | 266 | 4.0 | 7.0 | 0.00 | 0.00 | 0.00 | 59 | 1018.9 |
| 20260902194714 | 95 | 221 | 4.0 | 8.0 | 0.00 | 0.00 | 0.00 | 56 | 1019.0 |
| 20260902194247 | 95 | 240 | 3.0 | 8.0 | 0.00 | 0.00 | 0.00 | 59 | 1019.0 |
| 20260902193718 | 94 | 268 | 1.0 | 4.0 | 0.00 | 0.00 | 0.00 | 60 | 1019.1 |
| 20260902193231 | 94 | 238 | 1.0 | 5.0 | 0.00 | 0.00 | 0.00 | 62 | 1019.0 |
| 20260902192723 | 95 | 234 | 3.0 | 7.0 | 0.00 | 0.00 | 0.00 | 59 | 1019.1 |
| 20260902192216 | 95 | 240 | 3.0 | 7.0 | 0.00 | 0.00 | 0.00 | 58 | 1019.1 |
| 20260902191729 | 95 | 196 | 0.0 | 6.0 | 0.00 | 0.00 | 0.00 | 57 | 1019.1 |
| 20260902191226 | 95 | 217 | 2.0 | 8.0 | 0.00 | 0.00 | 0.00 | 58 | 1019.3 |
| 20260902190719 | 94 | 258 | 4.0 | 8.0 | 0.00 | 0.00 | 0.00 | 61 | 1019.3 |
| 20260902190232 | 94 | 210 | 2.0 | 6.0 | 0.00 | 0.00 | 0.00 | 61 | 1019.3 |
| 20260902185739 | 93 | 232 | 3.0 | 6.0 | 0.00 | 0.00 | 0.00 | 61 | 1019.4 |
| 20260902185232 | 93 | 286 | 3.0 | 6.0 | 0.00 | 0.00 | 0.00 | 61 | 1019.4 |
| 20260902184724 | 93 | 229 | 2.0 | 7.0 | 0.00 | 0.00 | 0.00 | 65 | 1019.5 |
| 20260902184217 | 93 | 278 | 2.0 | 4.0 | 0.00 | 0.00 | 0.00 | 63 | 1019.5 |
| 20260902183731 | 93 | 274 | 1.0 | 7.0 | 0.00 | 0.00 | 0.00 | 63 | 1019.5 |
| 20260902183224 | 94 | 309 | 4.0 | 7.0 | 0.00 | 0.00 | 0.00 | 63 | 1019.5 |
| 20260902182721 | 94 | 281 | 2.0 | 5.0 | 0.00 | 0.00 | 0.00 | 63 | 1019.5 |
| 20260902182214 | 93 | 236 | 3.0 | 7.0 | 0.00 | 0.00 | 0.00 | 61 | 1019.6 |
| 20260902181727 | 94 | 230 | 3.0 | 8.0 | 0.00 | 0.00 | 0.00 | 62 | 1019.6 |
| 20260902181220 | 94 | 246 | 3.0 | 10.0 | 0.00 | 0.00 | 0.00 | 62 | 1019.6 |
| 20260902180712 | 94 | 203 | 5.0 | 10.0 | 0.00 | 0.00 | 0.00 | 63 | 1019.6 |
| 20260902180226 | 94 | 260 | 2.0 | 10.0 | 0.00 | 0.00 | 0.00 | 62 | 1019.7 |
| 20260902175753 | 94 | 285 | 4.0 | 10.0 | 0.00 | 0.00 | 0.00 | 64 | 1019.6 |
| 20260902175224 | 94 | 203 | 1.0 | 6.0 | 0.00 | 0.00 | 0.00 | 64 | 1019.7 |
| 20260902174722 | 93 | 269 | 3.0 | 7.0 | 0.00 | 0.00 | 0.00 | 63 | 1019.7 |
| 20260902174214 | 93 | 236 | 3.0 | 7.0 | 0.00 | 0.00 | 0.00 | 62 | 1019.8 |
| 20260902173729 | 94 | 279 | 3.0 | 10.0 | 0.00 | 0.00 | 0.00 | 61 | 1020.0 |
| 20260902173242 | 93 | 219 | 3.0 | 10.0 | 0.00 | 0.00 | 0.00 | 61 | 1020.0 |
| 20260902172714 | 93 | 237 | 3.0 | 9.0 | 0.00 | 0.00 | 0.00 | 64 | 1020.1 |
| 20260902172227 | 93 | 198 | 3.0 | 6.0 | 0.00 | 0.00 | 0.00 | 62 | 1020.1 |
| 20260902171719 | 93 | 249 | 2.0 | 6.0 | 0.00 | 0.00 | 0.00 | 61 | 1020.1 |
| 20260902171232 | 93 | 241 | 4.0 | 8.0 | 0.00 | 0.00 | 0.00 | 62 | 1020.1 |
| 20260902170725 | 93 | 233 | 5.0 | 8.0 | 0.00 | 0.00 | 0.00 | 62 | 1020.2 |
| 20260902170222 | 93 | 233 | 2.0 | 5.0 | 0.00 | 0.00 | 0.00 | 66 | 1020.3 |
| 20260902165729 | 93 | 279 | 2.0 | 5.0 | 0.00 | 0.00 | 0.00 | 64 | 1020.3 |
| 20260902165221 | 93 | 221 | 1.0 | 5.0 | 0.00 | 0.00 | 0.00 | 64 | 1020.3 |
| 20260902164714 | 93 | 245 | 2.0 | 6.0 | 0.00 | 0.00 | 0.00 | 63 | 1020.4 |
| 20260902164228 | 93 | 234 | 3.0 | 6.0 | 0.00 | 0.00 | 0.00 | 65 | 1020.4 |
| 20260902163741 | 93 | 184 | 1.0 | 5.0 | 0.00 | 0.00 | 0.00 | 67 | 1020.5 |
| 20260902163213 | 93 | 208 | 1.0 | 5.0 | 0.00 | 0.00 | 0.00 | 67 | 1020.5 |
| 20260902162748 | 92 | 181 | 3.0 | 5.0 | 0.00 | 0.00 | 0.00 | 66 | 1020.6 |
| 20260902162220 | 92 | 243 | 0.0 | 4.0 | 0.00 | 0.00 | 0.00 | 65 | 1020.6 |
| 20260902161716 | 92 | 259 | 1.0 | 4.0 | 0.00 | 0.00 | 0.00 | 66 | 1020.7 |
| 20260902161229 | 91 | 217 | 0.0 | 5.0 | 0.00 | 0.00 | 0.00 | 70 | 1020.7 |
| 20260902160742 | 91 | 235 | 2.0 | 5.0 | 0.00 | 0.00 | 0.00 | 68 | 1020.8 |
| 20260902160234 | 91 | 329 | 2.0 | 5.0 | 0.00 | 0.00 | 0.00 | 69 | 1020.8 |
| 20260902155721 | 91 | 285 | 3.0 | 5.0 | 0.00 | 0.00 | 0.00 | 69 | 1020.9 |
| 20260902155213 | 90 | 243 | 2.0 | 5.0 | 0.00 | 0.00 | 0.00 | 70 | 1020.9 |
| 20260902154727 | 90 | 201 | 2.0 | 4.0 | 0.00 | 0.00 | 0.00 | 71 | 1020.9 |
| 20260902154240 | 90 | 255 | 1.0 | 4.0 | 0.00 | 0.00 | 0.00 | 72 | 1020.9 |
| 20260902153752 | 89 | 341 | 0.0 | 6.0 | 0.00 | 0.00 | 0.00 | 72 | 1020.9 |
| 20260902153244 | 89 | 312 | 2.0 | 6.0 | 0.00 | 0.00 | 0.00 | 74 | 1020.9 |
| 20260902152716 | 89 | 321 | 2.0 | 4.0 | 0.00 | 0.00 | 0.00 | 73 | 1020.9 |
| 20260902152213 | 89 | 278 | 1.0 | 5.0 | 0.00 | 0.00 | 0.00 | 75 | 1020.8 |
| 20260902151726 | 88 | 205 | 3.0 | 5.0 | 0.00 | 0.00 | 0.00 | 74 | 1020.7 |
| 20260902151219 | 88 | 227 | 2.0 | 5.0 | 0.00 | 0.00 | 0.00 | 76 | 1020.7 |
| 20260902150732 | 88 | 328 | 1.0 | 4.0 | 0.00 | 0.00 | 0.00 | 76 | 1020.7 |
| 20260902150224 | 87 | 276 | 1.0 | 4.0 | 0.00 | 0.00 | 0.00 | 77 | 1020.8 |
| 20260902145732 | 87 | 274 | 1.0 | 3.0 | 0.00 | 0.00 | 0.00 | 77 | 1020.9 |
| 20260902145224 | 87 | 275 | 1.0 | 4.0 | 0.00 | 0.00 | 0.00 | 77 | 1021.0 |
| 20260902144717 | 87 | 278 | 2.0 | 4.0 | 0.00 | 0.00 | 0.00 | 75 | 1021.0 |
| 20260902144234 | 87 | 273 | 0.0 | 4.0 | 0.00 | 0.00 | 0.00 | 79 | 1020.9 |
| 20260902143743 | 86 | 328 | 1.0 | 4.0 | 0.00 | 0.00 | 0.00 | 78 | 1020.9 |
| 20260902143215 | 86 | 271 | 1.0 | 3.0 | 0.00 | 0.00 | 0.00 | 78 | 1020.8 |
| 20260902142751 | 86 | 283 | 1.0 | 4.0 | 0.00 | 0.00 | 0.00 | 79 | 1020.8 |
| 20260902142223 | 85 | 302 | 1.0 | 4.0 | 0.00 | 0.00 | 0.00 | 78 | 1020.7 |
| 20260902141737 | 85 | 272 | 0.0 | 3.0 | 0.00 | 0.00 | 0.00 | 82 | 1020.7 |
| 20260902141230 | 84 | 231 | 1.0 | 4.0 | 0.00 | 0.00 | 0.00 | 81 | 1020.8 |
| 20260902140724 | 84 | 225 | 1.0 | 4.0 | 0.00 | 0.00 | 0.00 | 82 | 1020.7 |
| 20260902140218 | 83 | 221 | 1.0 | 3.0 | 0.00 | 0.00 | 0.00 | 82 | 1020.8 |
| 20260902135724 | 82 | 225 | 1.0 | 3.0 | 0.00 | 0.00 | 0.00 | 82 | 1020.8 |
| 20260902135242 | 82 | 226 | 1.0 | 3.0 | 0.00 | 0.00 | 0.00 | 84 | 1020.8 |
| 20260902134714 | 82 | 226 | 1.0 | 3.0 | 0.00 | 0.00 | 0.00 | 85 | 1020.8 |
| 20260902134247 | 81 | 230 | 1.0 | 2.0 | 0.00 | 0.00 | 0.00 | 84 | 1020.9 |
| 20260902133719 | 81 | 225 | 1.0 | 3.0 | 0.00 | 0.00 | 0.00 | 85 | 1020.8 |
| 20260902133231 | 80 | 226 | 2.0 | 3.0 | 0.00 | 0.00 | 0.00 | 85 | 1020.9 |
| 20260902132724 | 80 | 236 | 2.0 | 4.0 | 0.00 | 0.00 | 0.00 | 86 | 1020.9 |
| 20260902132217 | 79 | 238 | 2.0 | 4.0 | 0.00 | 0.00 | 0.00 | 86 | 1020.8 |
| 20260902131730 | 79 | 235 | 2.0 | 4.0 | 0.00 | 0.00 | 0.00 | 86 | 1020.8 |
| 20260902131224 | 79 | 230 | 2.0 | 4.0 | 0.00 | 0.00 | 0.00 | 86 | 1020.8 |
| 20260902130721 | 79 | 236 | 2.0 | 3.0 | 0.00 | 0.00 | 0.00 | 86 | 1020.8 |
| 20260902130214 | 79 | 236 | 2.0 | 3.0 | 0.00 | 0.00 | 0.00 | 87 | 1020.8 |
| 20260902125720 | 78 | 230 | 1.0 | 2.0 | 0.00 | 0.00 | 0.00 | 88 | 1020.8 |
| 20260902125253 | 78 | 231 | 1.0 | 2.0 | 0.00 | 0.00 | 0.00 | 88 | 1020.7 |
| 20260902124725 | 78 | 226 | 0.0 | 2.0 | 0.00 | 0.00 | 0.00 | 89 | 1020.7 |
| 20260902124218 | 77 | 175 | 1.0 | 2.0 | 0.00 | 0.00 | 0.00 | 89 | 1020.7 |
| 20260902123752 | 77 | 202 | 0.0 | 2.0 | 0.00 | 0.00 | 0.00 | 90 | 1020.6 |
| 20260902123224 | 76 | 194 | 0.0 | 3.0 | 0.00 | 0.00 | 0.00 | 90 | 1020.5 |
| 20260902122717 | 76 | 185 | 1.0 | 3.0 | 0.00 | 0.00 | 0.00 | 91 | 1020.4 |
| 20260902122214 | 75 | 195 | 0.0 | 3.0 | 0.00 | 0.00 | 0.00 | 92 | 1020.4 |
| 20260902121727 | 74 | 198 | 1.0 | 2.0 | 0.00 | 0.00 | 0.00 | 93 | 1020.4 |
| 20260902121220 | 74 | 179 | 1.0 | 2.0 | 0.00 | 0.00 | 0.00 | 94 | 1020.4 |
| 20260902120753 | 73 | 183 | 1.0 | 3.0 | 0.00 | 0.00 | 0.00 | 95 | 1020.4 |
| 20260902120225 | 73 | 185 | 2.0 | 2.0 | 0.00 | 0.00 | 0.00 | 95 | 1020.4 |
| 20260902115731 | 72 | 188 | 1.0 | 2.0 | 0.00 | 0.00 | 0.00 | 95 | 1020.4 |
| 20260902115224 | 72 | 197 | 1.0 | 2.0 | 0.00 | 0.00 | 0.00 | 95 | 1020.4 |
| 20260902114716 | 72 | 197 | 0.0 | 1.0 | 0.00 | 0.00 | 0.00 | 96 | 1020.3 |
| 20260902114213 | 72 | 197 | 0.0 | 2.0 | 0.00 | 0.00 | 0.00 | 96 | 1020.2 |
| 20260902113746 | 72 | 197 | 1.0 | 2.0 | 0.00 | 0.00 | 0.00 | 96 | 1020.1 |
| 20260902113219 | 72 | 213 | 0.0 | 1.0 | 0.00 | 0.00 | 0.00 | 95 | 1020.0 |
| 20260902112712 | 72 | 213 | 0.0 | 1.0 | 0.00 | 0.00 | 0.00 | 95 | 1019.9 |
| 20260902112226 | 72 | 213 | 0.0 | 1.0 | 0.00 | 0.00 | 0.00 | 95 | 1019.8 |
| 20260902111720 | 72 | 234 | 0.0 | 1.0 | 0.00 | 0.00 | 0.00 | 95 | 1019.9 |
| 20260902111213 | 72 | 234 | 0.0 | 2.0 | 0.00 | 0.00 | 0.00 | 95 | 1019.9 |
| 20260902110726 | 72 | 173 | 0.0 | 2.0 | 0.00 | 0.00 | 0.00 | 95 | 1019.7 |
| 20260902110218 | 72 | 172 | 2.0 | 2.0 | 0.00 | 0.00 | 0.00 | 95 | 1019.7 |
| 20260902105743 | 72 | 164 | 0.0 | 2.0 | 0.00 | 0.00 | 0.00 | 95 | 1019.8 |
| 20260902105220 | 72 | 162 | 1.0 | 2.0 | 0.00 | 0.00 | 0.00 | 96 | 1019.8 |
| 20260902104753 | 72 | 158 | 1.0 | 1.0 | 0.00 | 0.00 | 0.00 | 96 | 1019.7 |
| 20260902104224 | 72 | 163 | 1.0 | 1.0 | 0.00 | 0.00 | 0.00 | 95 | 1019.7 |
| 20260902103737 | 72 | 163 | 0.0 | 0.0 | 0.00 | 0.00 | 0.00 | 95 | 1019.7 |
| 20260902103230 | 72 | 163 | 0.0 | 0.0 | 0.00 | 0.00 | 0.00 | 95 | 1019.6 |
| 20260902102723 | 72 | 163 | 0.0 | 0.0 | 0.00 | 0.00 | 0.00 | 95 | 1019.6 |
| 20260902102216 | 72 | 163 | 0.0 | 0.0 | 0.00 | 0.00 | 0.00 | 94 | 1019.5 |
| 20260902101749 | 72 | 163 | 0.0 | 0.0 | 0.00 | 0.00 | 0.00 | 94 | 1019.5 |
| 20260902101221 | 72 | 163 | 0.0 | 1.0 | 0.00 | 0.00 | 0.00 | 94 | 1019.5 |
| 20260902100717 | 73 | 163 | 0.0 | 2.0 | 0.00 | 0.00 | 0.00 | 94 | 1019.5 |
| 20260902100230 | 73 | 163 | 1.0 | 2.0 | 0.00 | 0.00 | 0.00 | 94 | 1019.5 |
| 20260902095717 | 73 | 162 | 2.0 | 3.0 | 0.00 | 0.00 | 0.00 | 94 | 1019.5 |
| 20260902095250 | 73 | 164 | 2.0 | 3.0 | 0.00 | 0.00 | 0.00 | 94 | 1019.4 |
| 20260902094723 | 73 | 160 | 2.0 | 3.0 | 0.00 | 0.00 | 0.00 | 94 | 1019.5 |
| 20260902094232 | 73 | 177 | 2.0 | 3.0 | 0.00 | 0.00 | 0.00 | 94 | 1019.4 |
| 20260902093725 | 73 | 169 | 1.0 | 3.0 | 0.00 | 0.00 | 0.00 | 94 | 1019.4 |
| 20260902093217 | 73 | 179 | 3.0 | 3.0 | 0.00 | 0.00 | 0.00 | 94 | 1019.4 |
| 20260902092731 | 73 | 182 | 2.0 | 3.0 | 0.00 | 0.00 | 0.00 | 94 | 1019.4 |
| 20260902092228 | 73 | 163 | 2.0 | 3.0 | 0.00 | 0.00 | 0.00 | 94 | 1019.4 |
| 20260902091720 | 73 | 195 | 1.0 | 2.0 | 0.00 | 0.00 | 0.00 | 94 | 1019.5 |
| 20260902091233 | 73 | 197 | 0.0 | 2.0 | 0.00 | 0.00 | 0.00 | 94 | 1019.5 |
| 20260902090726 | 73 | 195 | 1.0 | 3.0 | 0.00 | 0.00 | 0.00 | 94 | 1019.4 |
| 20260902090218 | 73 | 189 | 2.0 | 4.0 | 0.00 | 0.00 | 0.00 | 95 | 1019.4 |
| 20260902085724 | 73 | 184 | 3.0 | 4.0 | 0.00 | 0.00 | 0.00 | 95 | 1019.4 |
| 20260902085216 | 73 | 187 | 2.0 | 4.0 | 0.00 | 0.00 | 0.00 | 95 | 1019.4 |
| 20260902084729 | 73 | 181 | 3.0 | 4.0 | 0.00 | 0.00 | 0.00 | 95 | 1019.4 |
| 20260902084225 | 73 | 181 | 3.0 | 4.0 | 0.00 | 0.00 | 0.00 | 95 | 1019.2 |
| 20260902083718 | 73 | 180 | 3.0 | 4.0 | 0.00 | 0.00 | 0.00 | 95 | 1019.2 |
| 20260902083251 | 73 | 181 | 3.0 | 4.0 | 0.00 | 0.00 | 0.00 | 95 | 1019.2 |
| 20260902082722 | 73 | 191 | 3.0 | 3.0 | 0.00 | 0.00 | 0.00 | 95 | 1019.1 |
| 20260902082215 | 73 | 195 | 2.0 | 2.0 | 0.00 | 0.00 | 0.00 | 95 | 1019.1 |
| 20260902081728 | 73 | 194 | 1.0 | 2.0 | 0.00 | 0.00 | 0.00 | 94 | 1019.1 |
| 20260902081240 | 73 | 193 | 2.0 | 2.0 | 0.00 | 0.00 | 0.00 | 95 | 1019.1 |
| 20260902080731 | 73 | 193 | 1.0 | 2.0 | 0.00 | 0.00 | 0.00 | 95 | 1019.1 |
| 20260902080224 | 73 | 196 | 1.0 | 3.0 | 0.00 | 0.00 | 0.00 | 95 | 1019.0 |
| 20260902075713 | 73 | 189 | 2.0 | 3.0 | 0.00 | 0.00 | 0.00 | 95 | 1019.0 |
| 20260902075226 | 73 | 186 | 2.0 | 3.0 | 0.00 | 0.00 | 0.00 | 95 | 1019.0 |
| 20260902074719 | 73 | 186 | 3.0 | 3.0 | 0.00 | 0.00 | 0.00 | 95 | 1019.0 |
| 20260902074231 | 73 | 193 | 1.0 | 2.0 | 0.00 | 0.00 | 0.00 | 95 | 1019.0 |
| 20260902073724 | 73 | 193 | 2.0 | 3.0 | 0.00 | 0.00 | 0.00 | 95 | 1018.9 |
| 20260902073237 | 73 | 191 | 2.0 | 3.0 | 0.00 | 0.00 | 0.00 | 95 | 1019.0 |
| 20260902072729 | 73 | 200 | 1.0 | 2.0 | 0.00 | 0.00 | 0.00 | 95 | 1019.0 |
| 20260902072221 | 73 | 198 | 1.0 | 3.0 | 0.00 | 0.00 | 0.00 | 94 | 1018.9 |
| 20260902071714 | 73 | 193 | 2.0 | 3.0 | 0.00 | 0.00 | 0.00 | 94 | 1018.9 |
| 20260902071231 | 73 | 197 | 1.0 | 2.0 | 0.00 | 0.00 | 0.00 | 94 | 1018.9 |
| 20260902070723 | 74 | 193 | 1.0 | 3.0 | 0.00 | 0.00 | 0.00 | 94 | 1018.8 |
| 20260902070217 | 74 | 191 | 2.0 | 3.0 | 0.00 | 0.00 | 0.00 | 94 | 1018.9 |
| 20260902065723 | 74 | 191 | 2.0 | 3.0 | 0.00 | 0.00 | 0.00 | 94 | 1018.9 |
| 20260902065216 | 74 | 197 | 1.0 | 2.0 | 0.00 | 0.00 | 0.00 | 94 | 1018.8 |
| 20260902064729 | 74 | 197 | 1.0 | 2.0 | 0.00 | 0.00 | 0.00 | 94 | 1018.9 |
| 20260902064221 | 74 | 197 | 1.0 | 2.0 | 0.00 | 0.00 | 0.00 | 94 | 1018.9 |
| 20260902063714 | 74 | 195 | 1.0 | 2.0 | 0.00 | 0.00 | 0.00 | 94 | 1018.9 |
| 20260902063231 | 74 | 198 | 1.0 | 2.0 | 0.00 | 0.00 | 0.00 | 94 | 1018.9 |
| 20260902062723 | 74 | 199 | 1.0 | 3.0 | 0.00 | 0.00 | 0.00 | 94 | 1018.9 |
| 20260902062216 | 74 | 199 | 1.0 | 4.0 | 0.00 | 0.00 | 0.00 | 94 | 1018.9 |
| 20260902061729 | 74 | 185 | 2.0 | 4.0 | 0.00 | 0.00 | 0.00 | 94 | 1019.0 |
| 20260902061301 | 74 | 194 | 3.0 | 3.0 | 0.00 | 0.00 | 0.00 | 94 | 1019.0 |
| 20260902060731 | 74 | 181 | 2.0 | 3.0 | 0.00 | 0.00 | 0.00 | 94 | 1019.0 |
| 20260902060224 | 74 | 186 | 2.0 | 3.0 | 0.00 | 0.00 | 0.00 | 94 | 1019.0 |
| 20260902055730 | 75 | 193 | 2.0 | 3.0 | 0.00 | 0.00 | 0.00 | 93 | 1019.1 |
| 20260902055222 | 75 | 191 | 2.0 | 3.0 | 0.00 | 0.00 | 0.00 | 93 | 1019.0 |
| 20260902054719 | 75 | 199 | 1.0 | 2.0 | 0.00 | 0.00 | 0.00 | 93 | 1019.2 |
| 20260902054231 | 75 | 202 | 2.0 | 3.0 | 0.00 | 0.00 | 0.00 | 93 | 1019.1 |
| 20260902053722 | 75 | 193 | 2.0 | 3.0 | 0.00 | 0.00 | 0.00 | 93 | 1019.1 |
| 20260902053215 | 75 | 198 | 1.0 | 4.0 | 0.00 | 0.00 | 0.00 | 94 | 1019.1 |
| 20260902052728 | 75 | 192 | 3.0 | 4.0 | 0.00 | 0.00 | 0.00 | 94 | 1019.1 |
| 20260902052240 | 75 | 186 | 3.0 | 4.0 | 0.00 | 0.00 | 0.00 | 94 | 1019.1 |
| 20260902051752 | 75 | 185 | 3.0 | 3.0 | 0.00 | 0.00 | 0.00 | 93 | 1019.1 |
| 20260902051223 | 75 | 173 | 1.0 | 4.0 | 0.00 | 0.00 | 0.00 | 93 | 1019.1 |
| 20260902050736 | 75 | 174 | 3.0 | 4.0 | 0.00 | 0.00 | 0.00 | 93 | 1019.2 |
| 20260902050228 | 76 | 179 | 2.0 | 3.0 | 0.00 | 0.00 | 0.00 | 93 | 1019.1 |
| 20260902045714 | 76 | 192 | 1.0 | 3.0 | 0.00 | 0.00 | 0.00 | 92 | 1019.1 |
| 20260902045231 | 76 | 198 | 0.0 | 3.0 | 0.00 | 0.00 | 0.00 | 92 | 1019.1 |
| 20260902044723 | 76 | 192 | 2.0 | 3.0 | 0.00 | 0.00 | 0.00 | 92 | 1019.1 |
| 20260902044236 | 76 | 191 | 2.0 | 3.0 | 0.00 | 0.00 | 0.00 | 92 | 1019.0 |
| 20260902043728 | 76 | 193 | 1.0 | 3.0 | 0.00 | 0.00 | 0.00 | 92 | 1019.0 |
| 20260902043220 | 77 | 190 | 2.0 | 3.0 | 0.00 | 0.00 | 0.00 | 91 | 1019.0 |
| 20260902042713 | 77 | 192 | 2.0 | 2.0 | 0.00 | 0.00 | 0.00 | 91 | 1019.0 |
| 20260902042226 | 77 | 195 | 2.0 | 3.0 | 0.00 | 0.00 | 0.00 | 91 | 1019.1 |
| 20260902041718 | 77 | 191 | 3.0 | 3.0 | 0.00 | 0.00 | 0.00 | 91 | 1019.0 |
| 20260902041251 | 77 | 188 | 2.0 | 3.0 | 0.00 | 0.00 | 0.00 | 91 | 1019.0 |
| 20260902040743 | 77 | 190 | 3.0 | 3.0 | 0.00 | 0.00 | 0.00 | 90 | 1019.0 |
| 20260902040219 | 77 | 191 | 2.0 | 3.0 | 0.00 | 0.00 | 0.00 | 90 | 1019.0 |
| 20260902035725 | 77 | 188 | 2.0 | 3.0 | 0.00 | 0.00 | 0.00 | 90 | 1019.1 |
| 20260902035237 | 77 | 196 | 1.0 | 3.0 | 0.00 | 0.00 | 0.00 | 90 | 1019.1 |
| 20260902034728 | 77 | 188 | 2.0 | 3.0 | 0.00 | 0.00 | 0.00 | 91 | 1019.0 |
| 20260902034240 | 77 | 188 | 3.0 | 4.0 | 0.00 | 0.00 | 0.00 | 91 | 1019.1 |
| 20260902033732 | 77 | 176 | 3.0 | 4.0 | 0.00 | 0.00 | 0.00 | 90 | 1019.1 |
| 20260902033225 | 78 | 198 | 2.0 | 4.0 | 0.00 | 0.00 | 0.00 | 90 | 1019.1 |
| 20260902032716 | 78 | 175 | 3.0 | 4.0 | 0.00 | 0.00 | 0.00 | 90 | 1019.1 |
| 20260902032230 | 78 | 181 | 3.0 | 4.0 | 0.00 | 0.00 | 0.00 | 89 | 1019.0 |
| 20260902031721 | 78 | 179 | 3.0 | 3.0 | 0.00 | 0.00 | 0.00 | 89 | 1019.0 |
| 20260902031217 | 78 | 175 | 2.0 | 3.0 | 0.00 | 0.00 | 0.00 | 88 | 1019.0 |
| 20260902030730 | 79 | 178 | 2.0 | 3.0 | 0.00 | 0.00 | 0.00 | 88 | 1019.1 |
| 20260902030222 | 79 | 175 | 2.0 | 3.0 | 0.00 | 0.00 | 0.00 | 88 | 1019.1 |
| 20260902025728 | 79 | 176 | 2.0 | 3.0 | 0.00 | 0.00 | 0.00 | 88 | 1019.1 |
| 20260902025241 | 79 | 168 | 1.0 | 2.0 | 0.00 | 0.00 | 0.00 | 88 | 1019.1 |
| 20260902024733 | 79 | 196 | 1.0 | 2.0 | 0.00 | 0.00 | 0.00 | 88 | 1019.1 |
| 20260902024246 | 79 | 196 | 1.0 | 1.0 | 0.00 | 0.00 | 0.00 | 87 | 1019.1 |
| 20260902023718 | 79 | 196 | 0.0 | 1.0 | 0.00 | 0.00 | 0.00 | 87 | 1019.2 |
| 20260902023231 | 79 | 196 | 0.0 | 1.0 | 0.00 | 0.00 | 0.00 | 86 | 1019.2 |
| 20260902022744 | 80 | 196 | 1.0 | 2.0 | 0.00 | 0.00 | 0.00 | 85 | 1019.1 |
| 20260902022235 | 80 | 196 | 1.0 | 1.0 | 0.00 | 0.00 | 0.00 | 84 | 1019.1 |
| 20260902021747 | 80 | 196 | 1.0 | 1.0 | 0.00 | 0.00 | 0.00 | 84 | 1019.0 |
| 20260902021223 | 80 | 196 | 0.0 | 1.0 | 0.00 | 0.00 | 0.00 | 84 | 1019.0 |
| 20260902020715 | 80 | 196 | 0.0 | 0.0 | 0.00 | 0.00 | 0.00 | 83 | 1019.0 |
| 20260902020230 | 81 | 196 | 0.0 | 0.0 | 0.00 | 0.00 | 0.00 | 82 | 1019.0 |
| 20260902015715 | 81 | 196 | 0.0 | 0.0 | 0.00 | 0.00 | 0.00 | 81 | 1019.0 |
| 20260902015227 | 81 | 196 | 0.0 | 1.0 | 0.00 | 0.00 | 0.00 | 81 | 1018.9 |
| 20260902014721 | 82 | 196 | 0.0 | 1.0 | 0.00 | 0.00 | 0.00 | 81 | 1019.0 |
| 20260902014253 | 82 | 196 | 0.0 | 1.0 | 0.00 | 0.00 | 0.00 | 81 | 1018.9 |
| 20260902013724 | 82 | 196 | 0.0 | 1.0 | 0.00 | 0.00 | 0.00 | 80 | 1019.0 |
| 20260902013221 | 82 | 196 | 1.0 | 1.0 | 0.00 | 0.00 | 0.00 | 80 | 1018.9 |
| 20260902012713 | 82 | 196 | 1.0 | 2.0 | 0.00 | 0.00 | 0.00 | 79 | 1018.9 |
| 20260902012225 | 83 | 196 | 1.0 | 2.0 | 0.00 | 0.00 | 0.00 | 79 | 1018.9 |
| 20260902011718 | 83 | 200 | 1.0 | 2.0 | 0.00 | 0.00 | 0.00 | 78 | 1018.9 |
| 20260902011231 | 83 | 203 | 1.0 | 1.0 | 0.00 | 0.00 | 0.00 | 77 | 1018.8 |
| 20260902010722 | 83 | 203 | 0.0 | 1.0 | 0.00 | 0.00 | 0.00 | 77 | 1018.8 |
| 20260902010215 | 83 | 203 | 0.0 | 1.0 | 0.00 | 0.00 | 0.00 | 77 | 1018.7 |
| 20260902005722 | 83 | 203 | 0.0 | 0.0 | 0.00 | 0.00 | 0.00 | 77 | 1018.7 |
| 20260902005218 | 84 | 203 | 0.0 | 0.0 | 0.00 | 0.00 | 0.00 | 77 | 1018.6 |
| 20260902004731 | 84 | 203 | 0.0 | 0.0 | 0.00 | 0.00 | 0.00 | 77 | 1018.5 |
| 20260902004223 | 84 | 203 | 0.0 | 0.0 | 0.00 | 0.00 | 0.00 | 76 | 1018.6 |
| 20260902003716 | 84 | 203 | 0.0 | 0.0 | 0.00 | 0.00 | 0.00 | 76 | 1018.5 |
| 20260902003230 | 84 | 203 | 0.0 | 0.0 | 0.00 | 0.00 | 0.00 | 76 | 1018.6 |
| 20260902002723 | 84 | 203 | 0.0 | 0.0 | 0.00 | 0.00 | 0.00 | 76 | 1018.5 |
| 20260902002217 | 84 | 203 | 0.0 | 0.0 | 0.00 | 0.00 | 0.00 | 76 | 1018.5 |